Weather in Uryum

Russia / Republic of Tatarstan     54°46′21″N   48°45′29″E
temp.,
°C
wind,
m/s
gust,
m/s
humid.,
%
clouds,
%
prec.,
mm/h
press.,
hPa
HPBL,
m
16 october, sat
sat1600:00+6wsw612643 0.0 1021640
03:00+5wsw511705 0.0 1021364
06:00+4wsw49750 0.0 1022282
09:00+7wsw59642 0.0 1022471
12:00+10sw684712 0.0 10221050
15:00+11sw574531 0.0 10201096
18:00+8ssw495750 0.0 1020200
21:00+7ssw4106391 0.0 1020288
17 october, sun
sun1700:00+7ssw5106496 0.0 1018310
03:00+7ssw51262100 0.0 1018378
06:00+7ssw496661 0.0 1017261
09:00+9sw5106022 0.0 1017439
12:00+12sw575619 0.0 1017940
15:00+12ssw475798 0.0 10151151
18:00+10s5107195 0.0 1016346
21:00+9ssw487489 0.0 1015287
18 october, mon
mon1800:00+8ssw4882100 0.0 1015196
03:00+9ssw3876100 0.0 1013251
06:00+7ssw358299 0.0 1013135
09:00+9sw3573100 0.0 1013310
12:00+11sw4664100 0.0 1012695
15:00+11sw466179 0.0 10101037
18:00+9wsw346838 0.0 101062
21:00+7wsw3970100 0.0 1010225
19 october, tue
tue1900:00+7wsw3769100 0.0 1010176
03:00+6w3668100 0.0 1010175
06:00+6wnw2473100 0.0 1010105
09:00+6wnw2378100 0.1 1010635
12:00+6wnw1383100 0.9 1010758
15:00+7nw1361100 1.5 1010958
18:00+6nnw3553100 0.0 1011337
21:00+5nnw3659100 0.0 1011287
20 october, wed
wed2000:00+4nnw3672100 0.0 1011250
03:00+2nw37825 0.0 1012225
06:000nw488723 0.0 1014288
09:00+2nw587936 0.0 1015557
12:00+3nw6865100 0.0 10161130
15:00+3nw586485 0.1 10171212
18:00+2nw586795 0.2 1019824
21:000nw38732 0.2 1020318